Time,TemperatureF,DewpointF,PressureIn,WindDirection,WindDirectionDegrees,WindSpeedMPH,WindSpeedGustMPH,Humidity,HourlyPrecipIn,Conditions,Clouds,dailyrainin,SoftwareType,DateUTC
2013-07-22 00:10:00,58.4,54.0,30.00,NNW,337,0.0,1.0,85,0.00,,,0.00,weatherlink.com 1.10,2013-07-22 04:10:00,
2013-07-22 00:25:00,58.0,53.0,30.00,NNW,337,0.0,1.0,84,0.00,,,0.00,weatherlink.com 1.10,2013-07-22 04:25:00,
2013-07-22 00:40:00,57.8,54.0,30.00,NNW,337,0.0,1.0,87,0.00,,,0.00,weatherlink.com 1.10,2013-07-22 04:40:00,
2013-07-22 00:55:00,57.5,54.0,30.00,NNW,337,0.0,1.0,88,0.00,,,0.00,weatherlink.com 1.10,2013-07-22 04:55:00,
2013-07-22 01:10:00,57.4,53.0,30.00,NNW,337,1.0,2.0,86,0.00,,,0.00,weatherlink.com 1.10,2013-07-22 05:10:00,
2013-07-22 01:25:00,57.5,53.0,30.00,NNW,340,0.0,1.0,86,0.00,,,0.00,weatherlink.com 1.10,2013-07-22 05:25:00,
2013-07-22 01:40:00,57.2,53.0,30.00,NW,325,0.0,2.0,86,0.00,,,0.00,weatherlink.com 1.10,2013-07-22 05:40:00,
2013-07-22 01:55:00,56.7,53.0,29.99,NW,325,0.0,1.0,88,0.00,,,0.00,weatherlink.com 1.10,2013-07-22 05:55:00,
2013-07-22 02:10:00,56.0,53.0,29.99,NNW,345,0.0,1.0,89,0.00,,,0.00,weatherlink.com 1.10,2013-07-22 06:10:00,
2013-07-22 02:25:00,56.1,53.0,29.99,NNW,344,0.0,1.0,90,0.00,,,0.00,weatherlink.com 1.10,2013-07-22 06:25:00,
2013-07-22 02:40:00,56.0,53.0,29.99,NNW,345,0.0,1.0,90,0.00,,,0.00,weatherlink.com 1.10,2013-07-22 06:40:00,
2013-07-22 02:55:00,56.2,53.0,30.00,NNW,344,0.0,1.0,90,0.00,,,0.00,weatherlink.com 1.10,2013-07-22 06:55:00,
2013-07-22 03:10:00,56.2,53.0,30.00,NNW,344,0.0,0.0,90,0.00,,,0.00,weatherlink.com 1.10,2013-07-22 07:10:00,
2013-07-22 03:25:00,56.0,54.0,29.99,NNW,344,0.0,1.0,91,0.00,,,0.00,weatherlink.com 1.10,2013-07-22 07:25:00,
2013-07-22 03:40:00,55.6,53.0,29.98,NNE,24,1.0,2.0,89,0.00,,,0.00,weatherlink.com 1.10,2013-07-22 07:40:00,
2013-07-22 03:55:00,55.2,53.0,29.98,NNE,24,0.0,1.0,92,0.00,,,0.00,weatherlink.com 1.10,2013-07-22 07:55:00,
2013-07-22 04:10:00,55.5,53.0,29.98,NNE,24,0.0,1.0,92,0.00,,,0.00,weatherlink.com 1.10,2013-07-22 08:10:00,
2013-07-22 04:25:00,55.3,53.0,29.98,NNE,24,0.0,2.0,92,0.00,,,0.00,weatherlink.com 1.10,2013-07-22 08:25:00,
2013-07-22 04:40:00,55.1,53.0,29.98,NNE,24,0.0,0.0,93,0.00,,,0.00,weatherlink.com 1.10,2013-07-22 08:40:00,
2013-07-22 04:56:00,55.3,54.0,29.98,NNE,24,0.0,1.0,94,0.00,,,0.00,weatherlink.com 1.10,2013-07-22 08:56:00,
2013-07-22 05:11:00,54.9,53.0,29.98,NNE,24,0.0,0.0,94,0.00,,,0.00,weatherlink.com 1.10,2013-07-22 09:11:00,
2013-07-22 05:26:00,55.0,53.0,29.98,NNE,24,0.0,1.0,94,0.00,,,0.00,weatherlink.com 1.10,2013-07-22 09:26:00,
2013-07-22 05:41:00,54.8,53.0,29.99,NNE,24,1.0,1.0,94,0.00,,,0.00,weatherlink.com 1.10,2013-07-22 09:41:00,
2013-07-22 05:56:00,54.7,53.0,30.00,NNE,24,0.0,0.0,94,0.00,,,0.00,weatherlink.com 1.10,2013-07-22 09:56:00,
2013-07-22 06:11:00,54.8,53.0,29.99,NNE,24,0.0,0.0,95,0.00,,,0.00,weatherlink.com 1.10,2013-07-22 10:11:00,
2013-07-22 06:26:00,55.5,54.0,30.00,NNE,24,0.0,1.0,93,0.00,,,0.00,weatherlink.com 1.10,2013-07-22 10:26:00,
2013-07-22 06:41:00,56.9,54.0,30.00,NNE,24,0.0,1.0,91,0.00,,,0.00,weatherlink.com 1.10,2013-07-22 10:41:00,
2013-07-22 06:56:00,58.1,55.0,30.00,NNE,24,0.0,1.0,89,0.00,,,0.00,weatherlink.com 1.10,2013-07-22 10:56:00,
2013-07-22 07:11:00,59.2,56.0,29.99,NNE,23,0.0,1.0,89,0.00,,,0.00,weatherlink.com 1.10,2013-07-22 11:11:00,
2013-07-22 07:26:00,60.3,57.0,30.00,SSE,148,0.0,1.0,88,0.00,,,0.00,weatherlink.com 1.10,2013-07-22 11:26:00,
2013-07-22 07:41:00,60.8,57.0,30.00,SSE,161,0.0,3.0,86,0.00,,,0.00,weatherlink.com 1.10,2013-07-22 11:41:00,
2013-07-22 07:56:00,62.1,58.0,30.00,SSE,157,1.0,1.0,86,0.00,,,0.00,weatherlink.com 1.10,2013-07-22 11:56:00,
2013-07-22 08:11:00,63.0,58.0,30.00,SSW,196,0.0,1.0,83,0.00,,,0.00,weatherlink.com 1.10,2013-07-22 12:11:00,
2013-07-22 08:26:00,63.4,58.0,30.00,South,170,0.0,1.0,82,0.00,,,0.00,weatherlink.com 1.10,2013-07-22 12:26:00,
2013-07-22 08:41:00,64.2,58.0,30.00,SSE,160,0.0,2.0,81,0.00,,,0.00,weatherlink.com 1.10,2013-07-22 12:41:00,
2013-07-22 08:56:00,65.9,60.0,30.00,SW,215,0.0,2.0,80,0.00,,,0.00,weatherlink.com 1.10,2013-07-22 12:56:00,
2013-07-22 09:11:00,66.7,60.0,29.99,South,187,0.0,4.0,80,0.00,,,0.00,weatherlink.com 1.10,2013-07-22 13:11:00,
2013-07-22 09:26:00,67.3,60.0,29.99,SSW,192,2.0,4.0,77,0.00,,,0.00,weatherlink.com 1.10,2013-07-22 13:26:00,
2013-07-22 09:41:00,68.3,60.0,29.99,SSE,160,0.0,4.0,76,0.00,,,0.00,weatherlink.com 1.10,2013-07-22 13:41:00,
2013-07-22 09:56:00,69.6,61.0,29.99,SSE,168,1.0,3.0,75,0.00,,,0.00,weatherlink.com 1.10,2013-07-22 13:56:00,
2013-07-22 10:11:00,69.0,60.0,29.99,SE,145,1.0,2.0,73,0.00,,,0.00,weatherlink.com 1.10,2013-07-22 14:11:00,
2013-07-22 10:26:00,68.8,62.0,29.99,South,191,0.0,1.0,78,0.00,,,0.00,weatherlink.com 1.10,2013-07-22 14:26:00,
2013-07-22 10:41:00,69.9,62.0,29.98,SSW,194,0.0,0.0,77,0.00,,,0.00,weatherlink.com 1.10,2013-07-22 14:41:00,
2013-07-22 10:56:00,69.5,62.0,29.98,SSE,155,1.0,3.0,76,0.00,,,0.00,weatherlink.com 1.10,2013-07-22 14:56:00,
2013-07-22 11:11:00,69.7,63.0,29.99,South,183,0.0,1.0,80,0.00,,,0.00,weatherlink.com 1.10,2013-07-22 15:11:00,
2013-07-22 11:26:00,71.2,64.0,29.99,SSE,168,0.0,2.0,77,0.00,,,0.00,weatherlink.com 1.10,2013-07-22 15:26:00,
2013-07-22 11:41:00,71.6,63.0,29.99,SSE,160,1.0,4.0,74,0.00,,,0.00,weatherlink.com 1.10,2013-07-22 15:41:00,
2013-07-22 11:56:00,71.2,64.0,29.99,SW,230,0.0,2.0,78,0.00,,,0.00,weatherlink.com 1.10,2013-07-22 15:56:00,
2013-07-22 12:11:00,71.4,64.0,29.98,East,83,2.0,4.0,76,0.00,,,0.00,weatherlink.com 1.10,2013-07-22 16:11:00,
2013-07-22 12:26:00,72.5,65.0,29.98,SSE,149,0.0,6.0,76,0.00,,,0.00,weatherlink.com 1.10,2013-07-22 16:26:00,
2013-07-22 12:41:00,74.3,65.0,29.98,SE,127,0.0,5.0,73,0.00,,,0.00,weatherlink.com 1.10,2013-07-22 16:41:00,
2013-07-22 12:57:00,74.1,64.0,29.97,South,191,0.0,2.0,71,0.00,,,0.00,weatherlink.com 1.10,2013-07-22 16:57:00,
2013-07-22 13:12:00,75.1,66.0,29.96,SE,134,1.0,3.0,74,0.00,,,0.00,weatherlink.com 1.10,2013-07-22 17:12:00,
2013-07-22 13:27:00,74.3,65.0,29.96,SE,138,0.0,3.0,73,0.00,,,0.00,weatherlink.com 1.10,2013-07-22 17:27:00,
2013-07-22 13:42:00,73.3,66.0,29.96,SSW,211,1.0,1.0,78,0.00,,,0.00,weatherlink.com 1.10,2013-07-22 17:42:00,
2013-07-22 13:57:00,71.8,65.0,29.96,WSW,253,0.0,1.0,78,0.00,,,0.00,weatherlink.com 1.10,2013-07-22 17:57:00,
2013-07-22 14:12:00,70.2,64.0,29.96,SSW,207,0.0,3.0,81,0.00,,,0.00,weatherlink.com 1.10,2013-07-22 18:12:00,
2013-07-22 14:27:00,70.0,65.0,29.96,SE,136,0.0,1.0,84,0.00,,,0.00,weatherlink.com 1.10,2013-07-22 18:27:00,
2013-07-22 14:42:00,71.3,66.0,29.96,SSW,203,1.0,3.0,82,0.00,,,0.00,weatherlink.com 1.10,2013-07-22 18:42:00,
2013-07-22 14:57:00,72.0,66.0,29.95,SSW,211,1.0,3.0,81,0.00,,,0.00,weatherlink.com 1.10,2013-07-22 18:57:00,
2013-07-22 15:12:00,72.4,66.0,29.95,SSE,163,0.0,4.0,79,0.00,,,0.00,weatherlink.com 1.10,2013-07-22 19:12:00,
2013-07-22 15:27:00,72.0,66.0,29.95,South,187,1.0,6.0,80,0.00,,,0.00,weatherlink.com 1.10,2013-07-22 19:27:00,
2013-07-22 15:42:00,72.3,66.0,29.94,SW,221,1.0,4.0,81,0.00,,,0.00,weatherlink.com 1.10,2013-07-22 19:42:00,
2013-07-22 16:12:00,71.4,66.0,29.93,WSW,253,2.0,4.0,83,0.00,,,0.00,weatherlink.com 1.10,2013-07-22 20:12:00,
2013-07-22 16:27:00,71.4,66.0,29.92,West,260,1.0,3.0,82,0.00,,,0.00,weatherlink.com 1.10,2013-07-22 20:27:00,
2013-07-22 16:42:00,70.8,66.0,29.92,SE,128,0.0,3.0,84,0.00,,,0.00,weatherlink.com 1.10,2013-07-22 20:42:00,
2013-07-22 16:57:00,70.7,65.0,29.91,SW,220,1.0,5.0,82,0.00,,,0.00,weatherlink.com 1.10,2013-07-22 20:57:00,
2013-07-22 17:12:00,70.6,66.0,29.91,SE,129,0.0,5.0,84,0.00,,,0.00,weatherlink.com 1.10,2013-07-22 21:12:00,
2013-07-22 17:27:00,70.3,65.0,29.91,SW,219,0.0,4.0,83,0.00,,,0.00,weatherlink.com 1.10,2013-07-22 21:27:00,
2013-07-22 17:42:00,69.9,65.0,29.91,SSW,192,0.0,4.0,85,0.00,,,0.00,weatherlink.com 1.10,2013-07-22 21:42:00,
2013-07-22 17:57:00,69.8,66.0,29.90,WSW,248,0.0,2.0,86,0.00,,,0.00,weatherlink.com 1.10,2013-07-22 21:57:00,
2013-07-22 18:12:00,69.6,65.0,29.90,SW,227,0.0,2.0,85,0.00,,,0.00,weatherlink.com 1.10,2013-07-22 22:12:00,
2013-07-22 18:27:00,69.3,65.0,29.90,West,273,2.0,3.0,85,0.00,,,0.00,weatherlink.com 1.10,2013-07-22 22:27:00,
2013-07-22 18:42:00,68.9,65.0,29.89,ESE,114,1.0,2.0,87,0.00,,,0.00,weatherlink.com 1.10,2013-07-22 22:42:00,
2013-07-22 18:57:00,68.4,64.0,29.89,WSW,254,0.0,3.0,86,0.00,,,0.00,weatherlink.com 1.10,2013-07-22 22:57:00,
2013-07-22 19:12:00,67.9,64.0,29.89,East,90,0.0,0.0,88,0.00,,,0.00,weatherlink.com 1.10,2013-07-22 23:12:00,
2013-07-22 19:27:00,67.3,64.0,29.89,ESE,105,0.0,1.0,89,0.00,,,0.00,weatherlink.com 1.10,2013-07-22 23:27:00,
2013-07-22 19:42:00,66.9,64.0,29.89,SW,216,0.0,2.0,89,0.00,,,0.00,weatherlink.com 1.10,2013-07-22 23:42:00,
2013-07-22 19:57:00,66.4,64.0,29.89,SW,223,0.0,3.0,90,0.00,,,0.00,weatherlink.com 1.10,2013-07-22 23:57:00,
2013-07-22 20:12:00,65.9,63.0,29.89,SW,214,1.0,4.0,91,0.00,,,0.00,weatherlink.com 1.10,2013-07-23 00:12:00,
2013-07-22 20:27:00,65.8,63.0,29.89,SE,141,1.0,7.0,91,0.00,,,0.00,weatherlink.com 1.10,2013-07-23 00:27:00,
2013-07-22 20:42:00,65.6,63.0,29.89,SE,145,0.0,1.0,92,0.00,,,0.00,weatherlink.com 1.10,2013-07-23 00:42:00,
2013-07-22 20:57:00,65.2,63.0,29.89,SE,140,0.0,1.0,92,0.00,,,0.00,weatherlink.com 1.10,2013-07-23 00:57:00,
2013-07-22 21:12:00,65.3,63.0,29.89,South,173,0.0,0.0,92,0.00,,,0.00,weatherlink.com 1.10,2013-07-23 01:12:00,
2013-07-22 21:27:00,65.2,63.0,29.90,South,184,0.0,1.0,92,0.00,,,0.00,weatherlink.com 1.10,2013-07-23 01:27:00,
2013-07-22 21:42:00,65.4,63.0,29.89,South,191,0.0,2.0,92,0.00,,,0.00,weatherlink.com 1.10,2013-07-23 01:42:00,
2013-07-22 21:57:00,65.4,63.0,29.89,ESE,116,0.0,1.0,93,0.00,,,0.00,weatherlink.com 1.10,2013-07-23 01:57:00,
2013-07-22 22:12:00,65.3,63.0,29.89,ESE,115,0.0,1.0,93,0.00,,,0.00,weatherlink.com 1.10,2013-07-23 02:12:00,
2013-07-22 22:27:00,65.3,63.0,29.89,ESE,115,0.0,1.0,93,0.00,,,0.00,weatherlink.com 1.10,2013-07-23 02:27:00,
2013-07-22 22:42:00,65.2,63.0,29.88,SSE,155,0.0,1.0,93,0.00,,,0.00,weatherlink.com 1.10,2013-07-23 02:42:00,
2013-07-22 22:57:00,65.3,64.0,29.88,SSE,151,4.0,4.0,94,0.00,,,0.00,weatherlink.com 1.10,2013-07-23 02:57:00,
2013-07-22 23:12:00,65.7,64.0,29.88,NW,314,0.0,2.0,93,0.00,,,0.00,weatherlink.com 1.10,2013-07-23 03:12:00,
2013-07-22 23:27:00,65.6,64.0,29.87,East,80,0.0,1.0,93,0.00,,,0.00,weatherlink.com 1.10,2013-07-23 03:27:00,
2013-07-22 23:42:00,65.6,64.0,29.86,SSE,165,0.0,3.0,93,0.00,,,0.00,weatherlink.com 1.10,2013-07-23 03:42:00,
2013-07-22 23:57:00,65.7,64.0,29.86,SW,217,0.0,6.0,93,0.00,,,0.00,weatherlink.com 1.10,2013-07-23 03:57:00,